YUNHAI 1-02 DEB

Satellite information

Favourite Embed

Satellite Type and Status

DEBRISIN ORBIT

Key statistics

Satellite YUNHAI 1-02 DEB at a glance.

Uptime

2272

Days in orbit

Revolutions

≈ 15.0

Per day

Orbit

SSO

Sun Synchronous Orbit

Inclination

98.4

Latest

Satellite identification and parameters

Extended collection of information and parameters for YUNHAI 1-02 DEB.

Object identification

Identified? True

Debris? True

Object name: YUNHAI 1-02 DEB

International designator: 2019-063M

Object number (NORAD): 48193

Object ID (CCSDS): 48193

Country: PEOPLES REPUBLIC OF CHINA (PRC)

Current information (Y/N): Y

RCS size: SMALL

Orbital parameters

Period: 95.745 minutes

Inclination: 98.4028 deg

SMA: 6932.712 km

Apoapsis: 559.44 km

Periapsis: 549.714 km

RAAN: 30.5726 deg

Eccentricy: 0.0007014

Argument of periapsis: 278.8043 deg

Mean anomaly: 81.2387 deg

Mean motion: 15.04000614 rev/day

Mean motion (dot): 0.00114557 rev/day2

B* drag term: 0.0081637642 1/REarth

Two-line elements (TLE)

Creation date: Dec. 14, 2025, 3:07 a.m.

Reference frame: TEME

Reference center: EARTH

Epoch: Dec. 13, 2025, 4:02 p.m. UTC

TLE line 0: 0 YUNHAI 1-02 DEB

TLE line 1: 1 48193U 19063M 25347.66811800 .00114557 00000-0 81638-2 0 9996

TLE line 2: 2 48193 98.4028 30.5726 0007014 278.8043 81.2387 15.04000614249235

Live tracking on map

Real-time ground track for satellite YUNHAI 1-02 DEB.

In-orbit conjunctions

A list of the most updated potential collisions computed for object YUNHAI 1-02 DEB.

Target Orbit TCA Probability of collision Miss distance Type
ATLAS 5 CENTAUR R/B LEO 2024-11-08 04:58:12 0.001055666 677.0 (m) ROCKET BODY

Associated space launch

The Yunhai-1 satellite is designed for detecting environmental elements in the atmosphere and ocean, the space environment, disaster prevention and reduction, and scientific experimentation. It is made by the Shanghai Institute of Spaceflight Technology.

YUNHAI 1-02 DEB was lifted into orbit during the mission ‘Long March 2D | Yunhai-1-02’, on board a Long March 2D space rocket.

The launch took place on Sept. 25, 2019, 12:54 a.m. from Launch Area 94 (SLS-2 / 603).

For more information about the launch, click the button.

Launch to space Long March 2D | Yunhai-1-02
Long March 2D | Yunhai-1-02

Agency: N/A

Status: Launch Successful

Launch date: Sept. 25, 2019, 12:54 a.m. UTC

Rocket: Long March 2D

Launch pad: Launch Area 94 (SLS-2 / 603)

Location: Jiuquan Satellite Launch Center, People's Republic of China

...

Latest news about this satellite

News about space launch
Breakup of China’s Yunhai-1 (02) satellite linked to space debris collision

U.S. space tracking has linked the breakup of Chinese satellite Yunhai-1 (02) to a collision with a small piece of debris from a Russian satellite launch, according to NASA.


Newsletter sign-up

Weekly statistics, charts and insights to help you stay on top of the space industry.